W4EDP Weather Reports


Display with metric or nautical units.
time (UTC)temp
F
wind
direction
speed
MPH
gust
MPH
rain 1hr
in
rain 24hr
in
rain mn
in
humidity
%
barometer
mb
20260507150716 52 0 1.0 4.0 0.00 1.32 0.31 96 1011.8
20260507145657 52 0 0.0 6.0 0.00 1.32 0.31 96 1011.8
20260507144716 52 0 0.0 0.0 0.00 1.33 0.31 96 1011.8
20260507143644 52 0 0.0 3.0 0.00 1.54 0.31 96 1011.8
20260507142654 52 0 0.0 3.0 0.00 1.92 0.31 96 1011.6
20260507141655 53 0 0.0 3.0 0.00 2.11 0.31 96 1011.6
20260507140630 53 0 0.0 1.0 0.00 2.14 0.31 96 1011.5
20260507135626 53 0 0.0 0.0 0.00 2.16 0.31 96 1011.5
20260507134628 52 0 0.0 0.0 0.00 2.18 0.31 96 1011.5
20260507133631 52 0 0.0 0.0 0.00 2.18 0.31 96 1011.4
20260507132625 52 0 0.0 0.0 0.00 2.18 0.31 96 1011.4
20260507131650 52 0 0.0 0.0 0.00 2.19 0.31 96 1011.4
20260507130615 53 0 0.0 0.0 0.00 2.21 0.31 96 1010.9
20260507124432 53 0 0.0 4.0 0.00 2.22 0.31 96 1010.8
20260507123400 53 0 0.0 0.0 0.00 2.22 0.31 96 1010.7
20260507122355 53 0 0.0 0.0 0.00 2.23 0.31 96 1010.3
20260507121344 53 0 0.0 0.0 0.00 2.23 0.31 96 1010.3
20260507120333 53 0 0.0 0.0 0.00 2.23 0.31 96 1010.3
20260507115347 53 0 0.0 0.0 0.00 2.23 0.31 96 1010.2
20260507114315 54 0 0.0 0.0 0.00 2.23 0.31 96 1010.3
20260507113246 54 0 1.0 6.0 0.00 2.23 0.31 96 1010.3
20260507112251 54 0 1.0 6.0 0.00 2.23 0.31 96 1009.9
20260507111246 54 0 0.0 3.0 0.00 2.23 0.31 96 1009.7
20260507110228 54 0 1.0 3.0 0.00 2.22 0.30 96 1009.7
20260507105247 55 0 0.0 1.0 0.00 2.22 0.30 96 1009.1
20260507104243 55 0 1.0 3.0 0.00 2.22 0.30 96 1009.5
20260507103252 55 0 0.0 0.0 0.00 2.22 0.30 96 1009.5
20260507102231 56 0 0.0 0.0 0.00 2.22 0.30 96 1009.1
20260507101234 56 0 0.0 0.0 0.00 2.21 0.28 96 1009.5
20260507100215 56 0 0.0 0.0 0.00 2.21 0.28 96 1009.5
20260507095154 57 0 0.0 0.0 0.00 2.21 0.28 96 1009.5
20260507094212 56 0 0.0 0.0 0.06 2.21 0.28 96 1009.5
20260507092027 56 0 0.0 0.0 0.20 2.18 0.27 96 1009.7
20260507091042 56 0 0.0 0.0 0.77 2.13 0.21 96 1009.9
20260507090056 57 0 0.0 0.0 0.10 2.03 0.12 96 1009.9
20260507083900 57 0 0.0 0.0 0.10 2.01 0.09 96 1009.4
20260507082846 57 0 0.0 0.0 0.51 1.98 0.06 96 1009.6
20260507081857 58 0 0.0 0.0 0.00 1.94 0.03 96 1009.6
20260507080904 58 0 0.0 0.0 0.00 1.94 0.02 96 1009.5
20260507075850 58 0 0.0 0.0 0.00 1.94 0.02 96 1010.0
20260507074831 58 0 0.0 0.0 0.00 1.94 0.02 96 1010.0
20260507072658 59 0 0.0 0.0 0.00 1.94 0.02 96 1009.4
20260507071654 59 0 0.0 0.0 0.00 1.94 0.02 96 1009.4
20260507070621 59 0 0.0 0.0 0.00 1.94 0.02 96 1008.9
20260507064514 59 0 0.0 0.0 0.00 1.94 0.02 96 1009.9
20260507063516 59 0 0.0 0.0 0.00 1.94 0.02 96 1009.6
20260507062526 59 0 0.0 0.0 0.00 1.94 0.02 96 1010.1
20260507060413 59 0 0.0 0.0 0.00 1.94 0.02 96 1010.1
20260507055352 59 0 0.0 0.0 0.00 1.94 0.02 96 1010.5
20260507054353 59 0 0.0 0.0 0.00 1.94 0.02 96 1009.8
20260507053414 59 0 0.0 0.0 0.00 1.94 0.02 96 1009.8
20260507052413 60 0 0.0 0.0 0.00 1.94 0.02 96 1009.7
20260507051349 60 0 0.0 0.0 0.00 1.94 0.02 96 1009.8
20260507050401 60 0 0.0 0.0 0.00 1.94 0.02 96 1009.8
20260507045403 61 0 0.0 0.0 0.00 1.94 0.02 96 1009.9
20260507043243 61 0 0.0 0.0 0.04 1.94 0.02 96 1010.4
20260507042234 61 0 0.0 0.0 0.06 1.94 0.02 96 1010.9
20260507041220 61 0 0.0 0.0 0.00 1.92 0.01 96 1010.7
20260507040209 61 0 0.0 0.0 0.00 1.92 0.00 96 1010.7
20260507035140 61 0 0.0 0.0 0.06 1.92 1.92 96 1010.5
20260507034119 61 0 0.0 0.0 0.10 1.90 1.91 96 1011.0
20260507033046 61 0 0.0 0.0 0.16 1.87 1.87 96 1011.0
20260507032031 61 0 0.0 0.0 0.04 1.85 1.85 96 1010.7
20260507031042 61 0 0.0 0.0 0.10 1.85 1.85 96 1010.7
20260507030011 61 0 1.0 3.0 0.27 1.82 1.84 96 1010.7
20260507024939 61 0 0.0 0.0 0.42 1.80 1.81 96 1011.3
20260507023923 61 0 0.0 0.0 0.00 1.75 1.75 96 1010.9
20260507022948 61 0 0.0 0.0 0.00 1.75 1.75 96 1010.9
20260507021934 61 0 0.0 0.0 0.00 1.75 1.75 96 1010.9
20260507020922 61 0 0.0 0.0 0.00 1.75 1.75 96 1010.9
20260507015944 61 0 0.0 0.0 0.00 1.75 1.75 96 1010.9
20260507014928 61 0 0.0 0.0 0.00 1.75 1.75 96 1010.6
20260507013920 61 0 0.0 0.0 0.00 1.75 1.75 96 1010.9
20260507012912 61 0 0.0 3.0 0.00 1.75 1.75 96 1010.9
20260507010736 61 0 1.0 0.0 0.00 1.75 1.75 96 1010.7
20260507005726 61 0 1.0 3.0 0.00 1.75 1.75 96 1010.2
20260507004751 61 0 1.0 0.0 0.00 1.75 1.75 96 1010.2
20260507003806 61 0 1.0 3.0 0.00 1.75 1.75 96 1010.4
20260507001727 61 0 0.0 0.0 0.05 1.75 1.75 95 1010.3
20260506235621 61 0 1.0 8.0 0.00 1.66 1.66 95 1010.8
20260506234638 61 0 2.0 6.0 0.00 1.66 1.66 95 1010.8
20260506233629 61 0 2.0 8.0 0.05 1.66 1.66 95 1010.7
20260506232618 61 0 2.0 8.0 0.05 1.64 1.65 95 1010.6
20260506231544 61 0 0.0 0.0 0.34 1.63 1.65 95 1010.6
20260506230532 61 0 0.0 0.0 0.00 1.52 1.52 95 1010.7
20260506225534 61 0 0.0 3.0 0.04 1.51 1.51 95 1010.2
20260506223421 61 0 0.0 3.0 0.04 1.49 1.50 95 1010.2
20260506222405 61 0 1.0 4.0 0.06 1.49 1.49 95 1009.7
20260506221415 61 0 2.0 8.0 0.18 1.47 1.48 95 1009.7
20260506220340 61 0 1.0 8.0 0.10 1.45 1.45 95 1009.7
20260506214126 61 0 1.0 3.0 0.00 1.42 1.42 95 1009.6
20260506213116 61 0 1.0 8.0 0.00 1.42 1.42 95 1009.6
20260506212108 60 0 2.0 8.0 0.04 1.42 1.42 95 1009.0
20260506211110 61 0 2.0 8.0 0.06 1.42 1.42 95 1009.7
20260506210132 61 0 2.0 9.0 0.12 1.40 1.40 95 1009.7
20260506205144 61 0 2.0 9.0 0.06 1.35 1.36 95 1010.1
20260506204148 61 0 2.0 8.0 0.00 1.35 1.35 95 1010.2
20260506203128 61 0 2.0 9.0 0.00 1.33 1.34 95 1010.2
20260506202057 61 0 2.0 9.0 0.05 1.33 1.34 95 1010.2
20260506201057 61 0 2.0 9.0 0.19 1.33 1.34 95 1010.7
20260506200058 61 0 2.0 9.0 0.16 1.30 1.30 94 1010.7
20260506195047 62 0 1.0 9.0 0.00 1.28 1.29 95 1010.3
20260506194046 62 0 2.0 9.0 0.00 1.28 1.29 94 1010.5
20260506193055 63 0 2.0 9.0 0.06 1.28 1.29 95 1010.5
20260506192050 63 0 2.0 6.0 0.08 1.28 1.28 95 1011.0
20260506191029 62 0 1.0 8.0 0.16 1.26 1.26 94 1010.8
20260506185959 63 0 1.0 8.0 0.08 1.25 1.25 94 1010.8
20260506184944 64 0 2.0 6.0 0.06 1.23 1.24 95 1011.0
20260506182754 64 0 1.0 11.0 0.40 1.13 1.14 94 1011.0
20260506181800 64 0 1.0 4.0 0.10 1.05 1.05 94 1011.0
20260506180822 64 0 2.0 1.0 1.30 0.97 1.00 94 1011.6
20260506175804 64 182 2.0 9.0 0.00 0.91 0.91 94 1011.6
20260506174734 64 211 2.0 9.0 0.00 0.91 0.91 94 1011.6
20260506173734 64 185 2.0 11.0 0.00 0.91 0.91 93 1011.5
20260506172708 65 172 2.0 11.0 0.00 0.91 0.91 93 1011.2
20260506165403 65 170 2.0 15.0 0.00 0.91 0.91 94 1011.0
20260506164329 65 123 2.0 22.0 0.00 0.91 0.91 94 1010.9
20260506163334 65 155 2.0 22.0 0.00 0.91 0.91 94 1010.9
20260506161227 64 172 1.0 11.0 0.00 0.91 0.91 95 1011.0
20260506155110 63 0 1.0 8.0 0.00 0.91 0.91 95 1011.3
20260506152913 63 0 1.0 4.0 0.00 0.91 0.91 95 1011.8
20260506151838 62 0 0.0 1.0 0.00 0.91 0.91 94 1011.3